Regional Weather Roundup
Issued by NWS Lake Charles, LA

Current Version | Previous Version | Text Only | Print | Product List | Glossary On
Versions: 1 2 3 4 5 6 7 8 9 10 11 12 13 14 15 16 17 18 19 20 21 22 23 24 25 26 27 28 29 30 31 32 33 34 35 36 37 38 39 40 41 42 43 44 45 46 47 48 49 50
000
ASUS44 KLCH 021010
RWRLCH
RWRLCH
REGIONAL WEATHER ROUNDUP
NATIONAL WEATHER SERVICE LAKE CHARLES LA
500 AM CDT SUN AUG 02 2015

Note: "fair" indicates few or no clouds below 12,000 feet with no
significant weather and/or obstructions to visibility.


ACROSS SOUTHEAST TEXAS

CITY           SKY/WX    TMP DP  RH WIND       PRES   REMARKS
BEAUMONT       CLEAR     71  69  93 W3        29.88F
BEAUMONT CITY    N/A     69  66  92 CALM      29.90S
ORANGE         SUNNY     68  68 100 CALM      29.90S
JASPER         CLEAR     69  65  87 CALM      29.94S
$$

ACROSS CENTRAL LOUISIANA

CITY           SKY/WX    TMP DP  RH WIND       PRES   REMARKS
LEESVILLE      CLEAR     75  60  60 NE6       29.90R
FULLERTON        N/A     69  62  78 CALM      29.89S
ALEXANDRIA INT CLEAR     67  65  93 CALM      29.89S
ESLER FIELD    CLEAR     67  63  87 CALM      29.91S
DERIDDER         N/A     68  64  89 CALM      29.92S
OAKDALE        SUNNY     63  61  95 CALM      29.90R
OPELOUSAS        N/A     66  66  98 CALM      29.89S
$$

ACROSS SOUTHWEST AND SOUTH CENTRAL LOUISIANA

CITY           SKY/WX    TMP DP  RH WIND       PRES   REMARKS
SULPHUR        SUNNY     69  67  91 NW3       29.89S
LAKE CHARLES   CLEAR     70  67  90 CALM      29.88F
CHENNAULT INT  CLEAR     72  64  78 CALM      29.89S
CAMERON PHI    SUNNY     77  70  78 CALM      29.90F
DEQUINCY         N/A     66  64  94 NW3       29.90S
JENNINGS         N/A     71  66  83 CALM      29.89R
LAFAYETTE      CLEAR     73  68  84 CALM      29.88S
NEW IBERIA     CLEAR     72  68  87 CALM      29.89S
ABBEVILLE        N/A     68  67  98 CALM      29.88S
PATTERSON      CLEAR     73  72  94 CALM      29.89R
SALT POINT       N/A     77  73  87 MISG      29.86S
$$

SELECTED SITES ACROSS THE REGION

CITY           SKY/WX    TMP DP  RH WIND       PRES   REMARKS
HOUSTON BUSH   PTCLDY    74  69  85 CALM      29.90S
HOUSTON HOBBY  PTCLDY    77  69  76 CALM      29.89S
GALVESTON      CLEAR     83  71  67 NE3       29.90S
COLLEGE STAT   CLEAR     74  62  66 NE3       29.92R
CONROE         CLEAR     67  62  84 CALM      29.92S
HUNTSVILLE     CLEAR     70  62  76 CALM      29.92S
LUFKIN         CLEAR     67  64  90 CALM      29.92S
SHREVEPORT     CLEAR     70  63  78 CALM      29.93S
MONROE         PTCLDY    68  65  90 N3        29.93S
NATCHEZ MS     CLEAR     66  63  88 CALM      29.92S
BATON ROUGE    CLEAR     71  66  84 NE5       29.88F
N.O. INTL ARPT CLEAR     74  69  85 CALM      29.87S
SLIDELL        CLEAR     67  66  97 N3        29.87S
$$

MARINE REPORTS

STATION/POSITION TIME  TEMP    WIND        PRES    VSBY  WAVE
                       AIR SEA DIR/SP/G                  HT/PER
                 (UTC) (F)     (DEG/KT/KT) (MB)    (MI)  (FT/S)
BUOY 30 S HIGH I 0950   85 86  360/  4/  4 1011.5F         1/ 4
SEA RIM ST PARK  1000   75     340/  6/  7 1012.6F
PORT ARTHUR      0900      88     CALM     1012.2F
SABINE PASS N    0900   82 87   60/  5/  7 1012.2F
TEXAS POINT      NOT AVBL
CALCASIEU PASS   0900   82 87   70/  6/  6 1011.1F
LK CHARLES BEACH 0900   77 88                N/A
MARSH ISLAND     0900   84      60/  8/  9   N/A           0
FRESH WATER LOCK 0900   79 87   30/  3/  4 1011.6F
AMERADA PASS     0900   79 86   CALM  /  2 1011.3F
$$


USA.gov is the U.S. government's official web portal to all federal, state and local government web resources and services.